Air Resources Laboratory banner image
Air Resources Laboratory web site National Oceanic and Atmospheric Administration (NOAA)

ks roundup


Office: GLD

ASUS43 KGLD 190008
RWRGLD

GOODLAND FORECAST AREA HOURLY WEATHER ROUNDUP
NATIONAL WEATHER SERVICE GOODLAND KS
500 PM MST SUN NOV 18 2018

...OFFICIAL OBSERVATIONS...

CITY           SKY/WX    TMP DP  RH WIND       PRES   REMARKS
GOODLAND KS    CLEAR     36  25  64 SW9       30.03F
HILL CITY KS   CLEAR     35  24  64 S6        30.11F
IMPERIAL NEB   PTCLDY    34  20  56 SW7       30.02F
MCCOOK NEB     CLEAR     37  24  59 SW5       30.04F
AKRON CO       PTCLDY    33  20  58 SW7       30.00S
BURLINGTON CO  CLEAR     32  23  69 SW10      30.03F
LIMON CO       CLEAR     31  22  69 SE6       30.02S
$$

...UNOFFICIAL OBSERVATIONS...

CITY           SKY/WX    TMP DP  RH WIND       PRES   REMARKS
COLBY KS       CLEAR     34  25  69 S9        30.06F
SHARON SPRINGS   N/A     29  19  66 SW10        N/A  WCI  20
KIT CARSON CO    N/A     31  22  69 MISG        N/A
YUMA CO        FAIR      30  19  64 SW3       30.01
$$


ASUS63 KGLD 190018
RTPGLD

Max/Min Temperature And Precipitation Table
For Extreme Southwest Nebraska...Northwest Kansas
And East Central Colorado
National Weather Service Goodland Ks
515 PM MST Sun Nov 18 2018

.BR GLD  1118  CS DH18/TAIRZS/TAIRZI/PPDRZZ/SFDRZZ/SDIRZZ
:
:Values represent 18 hour highs....lows over the last 18 hours and
:precipitation over the last 24 hours ending at 6 PM CST/7 PM CDT
:Central time zone
:
:..............................................................
: Id    Station              Max  / Min  /    24 hr    / Snow
:        name                temp / temp / pcpn / snow / depth
:..............................................................
:
: First order /asos/ sites
 HLC : Hill City KS Airport:  43  /  14  / 0.00 /      /
 MCK : McCook NE Airport   :  43  /   8  /    T  /      /
.End
:
:
.BR GLD  1118  MS DH17/TAIRZS/TAIRZI/PPDRZZ/SFDRZZ/SDIRZZ
:
:Values represent 18 hour highs....lows over the last 18 hours and
:precipitation over the last 24 hours ending at 5 PM MST/6 PM MDT
:Mountain time zone
:
:..............................................................
: Id    Station              Max  / Min  /    24 hr    / Snow
:        name                temp / temp / pcpn / snow / depth
:..............................................................
:
: First order /asos/ sites
 GLD : Goodland KS Airport :  45  /  10  / 0.02 /  0.2  /    0
 ITR : Burlington CO Arpt  :  44  /   8  / 0.01 /      /
.End

These data are preliminary and have not undergone final quality
control by the National Centers for Enviromental Information
(NCEI).  Therefore, these data are subject to revision.  Final
and certified climate data can be accessed at:
http://www.ncei.noaa.gov.

$$



Office: TOP ASUS43 KTOP 190008 RWRKS WEATHER ROUNDUP FOR KANSAS NATIONAL WEATHER SERVICE GOODLAND KS 600 PM CST SUN NOV 18 2018 NOTE: "FAIR" INDICATES FEW OR NO CLOUDS BELOW 12,000 FEET WITH NO SIGNIFICANT WEATHER AND/OR OBSTRUCTIONS TO VISIBILITY. KSZ001>006-013>018-027>032-041>047-190100- NORTHWEST KANSAS CITY SKY/WX TMP DP RH WIND PRES REMARKS GOODLAND CLEAR 36 25 64 SW9 30.03F 6HR MIN TEMP: 34; 6HR MAX TEMP: 45; HAYS CLEAR 33 24 69 S8 30.14F HILL CITY CLEAR 35 24 64 S6 30.11F 6HR MIN TEMP: 35; 6HR MAX TEMP: 43; RUSSELL CLEAR 31 27 85 S8 30.14F 6HR MIN TEMP: 31; 6HR MAX TEMP: 40; $$ KSZ061>065-074>080-084>089-190100- SOUTHWEST KANSAS CITY SKY/WX TMP DP RH WIND PRES REMARKS DODGE CITY CLEAR 31 22 69 S6 30.15S 6HR MIN TEMP: 31; 6HR MAX TEMP: 39; ELKHART CLEAR 33 30 89 S9 30.11F GARDEN CITY CLEAR 30 23 75 S8 30.12F 6HR MIN TEMP: 29; 6HR MAX TEMP: 39; GREAT BEND CLEAR 30 24 78 S7 30.17S LIBERAL CLEAR 29 25 85 S7 30.16F PRATT CLEAR 31 24 77 SW7 30.18F 6HR MIN TEMP: 31; 6HR MAX TEMP: 39; $$ KSZ066>073-081>083-090>101-190100- SOUTHEAST KANSAS CITY SKY/WX TMP DP RH WIND PRES REMARKS CHANUTE CLOUDY 34 27 75 CALM 30.22F 6HR MIN TEMP: 31; 6HR MAX TEMP: 34; COFFEYVILLE CLOUDY 34 27 75 N5 30.24S 6HR MIN TEMP: 31; 6HR MAX TEMP: 34; HUTCHINSON CLEAR 31 23 72 S3 30.19S 6HR MIN TEMP: 31; 6HR MAX TEMP: 39; MEDICINE LODGE N/A 34 25 69 S3 30.20F NEWTON CLEAR 29 21 72 CALM 30.20F PARSONS CLOUDY 33 27 78 CALM 30.24S 6HR MIN TEMP: 30; 6HR MAX TEMP: 34; WICHITA INTL CLOUDY 34 27 75 CALM 30.21F 6HR MIN TEMP: 30; 6HR MAX TEMP: 36; WICHITA JABRA CLOUDY 33 26 75 CALM 30.21F 6HR MIN TEMP: 29; 6HR MAX TEMP: 36; WICHITA MCCONL CLOUDY 34 25 70 W3 30.21S WINFIELD CLOUDY 33 27 78 N3 30.23F 6HR MIN TEMP: 28; 6HR MAX TEMP: 33; $$ KSZ007>012-019>026-033>040-048>060-102>105-190100- NORTHEAST KANSAS CITY SKY/WX TMP DP RH WIND PRES REMARKS CONCORDIA CLEAR 29 17 61 S8 30.16F 6HR MIN TEMP: 27; 6HR MAX TEMP: 36; EMPORIA CLOUDY 33 28 81 CALM 30.20F 6HR MIN TEMP: 29; 6HR MAX TEMP: 34; LAWRENCE CLEAR 27 22 81 CALM 30.22F 6HR MIN TEMP: 26; 6HR MAX TEMP: 35; MANHATTAN CLEAR 29 17 61 CALM 30.20F 6HR MIN TEMP: 28; 6HR MAX TEMP: 39; MARYSVILLE CLEAR 28 19 69 S5 30.17F OLATHE IND CLEAR 25 23 92 NW6 30.22S 6HR MIN TEMP: 25; 6HR MAX TEMP: 34; OLATHE EXE CLEAR 30 24 78 NW5 30.21S 6HR MIN TEMP: 29; 6HR MAX TEMP: 35; SALINA CLEAR 31 21 66 SE6 30.20F 6HR MIN TEMP: 29; 6HR MAX TEMP: 37; TOPEKA BILLARD CLEAR 31 20 63 CALM 30.22S 6HR MIN TEMP: 29; 6HR MAX TEMP: 37; TOPEKA FORBES CLEAR 30 20 66 CALM 30.20F 6HR MIN TEMP: 28; 6HR MAX TEMP: 36; $$ ASUS63 KTOP 190030 RTPTOP Max/Min Temperature and Precipitation Table for North Central...Northeast and East Central Kansas National Weather Service Topeka KS 630 PM CST Sun Nov 18 2018 Values represent the high and low temperatures over the last 18 hours and precipitation over the last 24 hours ending at 6 PM CST/7 PM CDT. .BR TOP 1118 C DH18/TAIRZS/TAIRZI/PPDRZZ/SFDRZZ/SDIRZZ : : ***First Order Climate Stations*** : : Max Min Snow Snow :Id Location Temp Temp Pcpn Fall Depth TOP : Topeka Billard Airport : 37 / 24 / T / T / 0 CNK : Concordia Airport : 36 / 13 / 0.03 / 0.3 / T .END .BR TOP 1118 C DH18/TAIRZY/TAIRZI/PPDRZZ : : ***Other Automated First Order Stations*** : : Max Min :Id Location Temp Temp Pcpn FOE : Topeka Forbes Field : 36 / 23 / 0.00 LWC : Lawrence Airport : 35 / 25 / 0.00 MHK : Manhattan Airport : 39 / 25 / T EMP : Emporia Airport : 34 / 23 / 0.00 .END ***Other Automated Stations*** : Max Min :Id Location Temp Temp Pcpn MYZ : Marysville Airport : 34 / 12 / M OWI : Ottawa Municipal Airport : 36 / 27 / .END .BR TOP 1118 C DH18/TAIRZX/TAIRZN/PPDRZZ/SFDRZZ/SDIRZZ : : ***Cooperative Observer Network Observations*** : Values Represent The Previous 24 Hours : : Obs Max Min Snow Snow :ID Location Time Temp Temp Pcpn Fall Depth ABLK1: Abilene : DH1800 / 37 / 20 / 0.00 / M / M .END These data are preliminary and have not undergone final quality control by the National Climatic Data Center (NCDC). Therefore, these data are subject to revision. Final and certified climate data can be accessed at www.ncdc.noaa.gov. $$
Office: EAX ASUS43 KEAX 190010 RWREAX WEATHER ROUNDUP FOR EASTERN KANSAS AND NORTHWEST MISSOURI NATIONAL WEATHER SERVICE KANSAS CITY/PLEASANT HILL MO 600 PM CST SUN NOV 18 2018 KSZ040-057-103>105-MOZ028-029-037-043-190100- ...KANSAS CITY METROPOLITAN AREA... CITY SKY/WX TMP DP RH WIND PRES REMARKS K.C. INTL CLEAR 27 21 78 S6 30.21S WCI 20 6HR MIN TEMP: 27; 6HR MAX TEMP: 34; K.C. DOWNTOWN PTCLDY 33 23 66 W3 30.22F 6HR MIN TEMP: 29; 6HR MAX TEMP: 35; LEES SUMMIT PTCLDY 32 26 78 MISG 30.21F 6HR MIN TEMP: 31; 6HR MAX TEMP: 36; OLATHE - IXD CLEAR 25 23 92 NW6 30.22S WCI 18 6HR MIN TEMP: 25; 6HR MAX TEMP: 34; OLATHE - OJC CLEAR 30 24 78 NW5 30.21S WCI 25 6HR MIN TEMP: 29; 6HR MAX TEMP: 35; LAWRENCE CLEAR 27 22 81 CALM 30.22F $$ MOZ001>008-011>017-020>025-030>033-038>040-044>046-053-054-190100- ...NORTHERN AND CENTRAL MISSOURI... CITY SKY/WX TMP DP RH WIND PRES REMARKS ST. JOSEPH CLEAR 25 20 81 N3 30.23F 6HR MIN TEMP: 25; 6HR MAX TEMP: 33; MOSBY CLEAR 32 25 74 CALM 30.23S WARRENSBURG CLOUDY 34 28 80 N3 30.21F WHITEMAN AFB CLOUDY 34 29 82 CALM 30.16F 6HR MIN TEMP: 30; 6HR MAX TEMP: 35; CLINTON CLOUDY 32 28 86 CALM 30.22F SEDALIA CLOUDY 33 29 85 CALM 30.22F 6HR MIN TEMP: 29; 6HR MAX TEMP: 33; WARSAW NOT AVBL CHILLICOTHE N/A 30 23 75 CALM 30.23S 6HR MIN TEMP: 29; 6HR MAX TEMP: 38; KIRKSVILLE CLEAR 30 23 75 CALM 30.21S 6HR MIN TEMP: 28; 6HR MAX TEMP: 37; $$ MOZ041-047>049-056>058-063>065-088>090-097-190100- ...EASTERN AND SOUTHERN MISSOURI... CITY SKY/WX TMP DP RH WIND PRES REMARKS ST. LOUIS INTL CLOUDY 35 33 92 N8 30.22S FOG WCI 29 6HR MIN TEMP: 35; 6HR MAX TEMP: 36; SPIRIT OF STL CLOUDY 36 33 89 N5 30.22S WCI 32 COLUMBIA CLOUDY 34 30 85 N3 30.21F JEFFERSON CITY CLOUDY 35 30 82 CALM 30.23S ROLLA MIX PCPN 32 31 96 N5 30.19R FOG WCI 27 OSAGE BEACH CLOUDY 33 31 92 NE3 30.21F FOG SPRINGFIELD CLOUDY 33 31 92 N8 30.18S FOG WCI 26 BRANSON CLOUDY 36 36 100 N5 30.18R FOG WCI 32 JOPLIN CLOUDY 31 30 96 N6 30.22F FOG WCI 25 WEST PLAINS CLOUDY 39 36 89 N5 30.16S $$ IAZ060-094-KSZ022-034>040-054-083-096-NEZ052-066-093-190100- ...KANSAS...SOUTHEAST NEBRASKA AND IOWA... CITY SKY/WX TMP DP RH WIND PRES REMARKS TOPEKA CLEAR 31 20 63 CALM 30.22S 6HR MIN TEMP: 29; 6HR MAX TEMP: 37; MANHATTAN CLEAR 29 17 61 CALM 30.20F EMPORIA CLOUDY 33 28 81 CALM 30.20F CHANUTE CLOUDY 34 27 75 CALM 30.22F WICHITA CLOUDY 34 27 75 CALM 30.21F OMAHA CLEAR 25 13 60 S10 30.17S WCI 15 LINCOLN CLEAR 24 18 77 S7 30.16F WCI 16 FALLS CITY CLOUDY 24 16 71 SE5 30.19F WCI 18 LAMONI CLOUDY 21 14 74 SW5 30.19F WCI 15 DES MOINES PTCLDY 24 13 62 SW10 30.18S WCI 14 $$ ASUS63 KEAX 190014 RTPEAX Max/Min Temperature and Precipitation Table for Northeast Kansas...Northwest and North Central Missouri National Weather Service Kansas City/Pleasant Hill MO 614 PM CST Sun Nov 18 2018 Values represent 18 hour high, low over the last 18 hours and precipitation over the last 24 hours ending at 6 pm. Snow depth is the value at 6 pm. .BR EAX 1118 C DH18/TAIRZS/TAIRZI/PPDRZZ/SFDRZZ/SDIRZZ :Area Max/Min Temperature and Precipitation Report :................................................................ : Station Max / Min / 24-hr / Snow / Snow : Name Temp/ Temp / Precip / Fall / Depth :................................................................ : : MCI : Kansas City Intl : 34 / 23 / 0.01 / T / 0 STJ : St Joseph : 33 / 19 / T / / MKC : Kansas City Dwtn : 35 / 26 / 0.00 / / OJC : Johnson Co Exec : 35 / 24 / 0.00 / / IXD : Olathe New Cent : 34 / 25 / 0.00 / / CDJ : Chillicothe : 38 / 24 / 0.00 / / IRK : Kirksville : 37 / 23 / 0.02 / / DMO : Sedalia : 33 / 28 / T / / LXT : Lee's Summit : 36 / 26 / 0.00 / / .END These data are preliminary and have not undergone final quality control. Therefore, these data are subject to revision. Final and certified climate data can be accessed at the National Centers for Environmental Information (NCEI) at www.ncei.noaa.gov $$